Pendleton, OR

12:22 AM PST on January 24, 2017 (GMT -0800)
Eastern Oreg Regional At Pendleton

Weather History for KPDT - December, 2013

Change the Weather History Date:

Sunday, December 29, 2013

  Actual Average Record
Temperature  
Mean Temperature 28 °F 33 °F  
Max Temperature 37 °F 39 °F 65 °F (1975)
Min Temperature 18 °F 27 °F -13 °F (1990)
Degree Days  
Heating Degree Days 37 32  
Month to date heating degree days 1016 922  
Since 1 July heating degree days 2399 2175  
Cooling Degree Days 0 0  
Month to date cooling degree days 0 0  
Year to date cooling degree days 831 636  
Moisture  
Dew Point 22 °F    
Average Humidity 88    
Maximum Humidity 100    
Minimum Humidity 76    
Precipitation  
Precipitation 0.00 in 0.04 in 0.57 in (2010)
Month to date precipitation 0.79 1.38  
Year to date precipitation 9.27 12.57  
Snow  
Snow 0.00 in 0.20 in 6.60 in (2003)
Month to date snowfall 6.5 5.6  
Year to date snowfall 6.7 14.8  
Since 1 July snowfall 6.5 7.1  
Snow Depth 0.00 in    
Sea Level Pressure  
Sea Level Pressure 30.35 in    
Wind  
Wind Speed 4 mph (SSE)    
Max Wind Speed 10 mph    
Max Gust Speed 12 mph    
Visibility 6 miles    
Events Fog    
T = Trace of Precipitation, MM = Missing Value Source: NWS Daily Summary

Daily Weather History Graph

Daily Weather History Graph

Search for Another Location

Airport or City:

Trip Planner

Search our weather history database for the weather conditions in past years. The results will help you decide how hot, cold, wet, or windy it might be!

Date:

Astronomy

Dec. 29, 2013 Rise Set
Actual Time 7:35 AM PST 4:19 PM PST
Civil Twilight 7:01 AM PST 4:53 PM PST
Nautical Twilight 6:23 AM PST 5:31 PM PST
Astronomical Twilight 5:47 AM PST 6:07 PM PST
Moon 4:20 AM PST (12/29) 2:05 PM PST (12/29)
Length of Visible Light 9h 52m
Length of Day
8h 43m
Waning Crescent, 10% of the Moon is Illuminated
Dec 29
Waning Crescent
Jan 1
New
Jan 7
First Quarter
Jan 15
Full
Jan 23
Last Quarter

Hourly Weather History & Observations

Time (PST) Temp. Windchill Dew Point Humidity Pressure Visibility Wind Dir Wind Speed Gust Speed Precip Events Conditions
12:07 AM 19.0 °F - 18.0 °F 96% 30.44 in 0.5 mi Calm Calm - N/A Fog Light Freezing Fog
12:14 AM 19.9 °F - 19.0 °F 96% 30.43 in 1.0 mi Calm Calm - N/A   Mist
12:17 AM 19.9 °F - 19.0 °F 96% 30.43 in 1.5 mi Calm Calm - N/A   Partly Cloudy
12:21 AM 19.9 °F - 19.0 °F 96% 30.43 in 3.0 mi Calm Calm - N/A   Partly Cloudy
12:53 AM 21.9 °F 17.2 °F 19.9 °F 92% 30.45 in 10.0 mi South 3.5 mph - N/A   Clear
1:53 AM 26.1 °F 21.9 °F 24.1 °F 92% 30.44 in 10.0 mi SSW 3.5 mph - N/A   Clear
2:53 AM 18.0 °F 11.1 °F 16.0 °F 92% 30.45 in 10.0 mi NW 4.6 mph - N/A   Clear
3:18 AM 18.0 °F - 16.0 °F 92% 30.39 in 2.0 mi Calm Calm - N/A   Scattered Clouds
3:20 AM 18.0 °F - 16.0 °F 92% 30.39 in 1.2 mi Calm Calm - N/A   Scattered Clouds
3:23 AM 18.0 °F - 17.1 °F 96% 30.39 in 0.8 mi Calm Calm - N/A   Mist
3:29 AM 18.0 °F - 16.0 °F 92% 30.38 in 1.2 mi Calm Calm - N/A   Partly Cloudy
3:31 AM 18.0 °F 12.7 °F 16.0 °F 92% 30.38 in 2.0 mi SSE 3.5 mph - N/A   Partly Cloudy
3:37 AM 18.0 °F 12.7 °F 16.0 °F 92% 30.38 in 1.0 mi SSE 3.5 mph - N/A   Mist
3:44 AM 18.0 °F 11.1 °F 17.1 °F 96% 30.38 in 0.5 mi SE 4.6 mph - N/A Fog Light Freezing Fog
3:53 AM 19.0 °F 11.1 °F 17.1 °F 92% 30.40 in 1.0 mi SSE 5.8 mph - N/A   Clear
4:04 AM 18.0 °F 11.1 °F 17.1 °F 96% 30.37 in 0.5 mi SSE 4.6 mph - N/A Fog Light Freezing Fog
4:12 AM 18.0 °F 9.8 °F 17.1 °F 96% 30.36 in 1.5 mi SSE 5.8 mph - N/A   Clear
4:15 AM 19.0 °F 11.1 °F 17.1 °F 92% 30.36 in 3.0 mi SE 5.8 mph - N/A   Clear
4:27 AM 19.9 °F 12.1 °F 19.0 °F 96% 30.36 in 6.0 mi SE 5.8 mph - N/A   Partly Cloudy
4:53 AM 19.9 °F - 19.0 °F 96% 30.40 in 7.0 mi Calm Calm - N/A   Clear
5:39 AM 19.9 °F 12.1 °F 18.0 °F 92% 30.36 in 7.0 mi NW 5.8 mph - N/A   Partly Cloudy
5:53 AM 19.0 °F 12.3 °F 18.0 °F 96% 30.39 in 4.0 mi NNW 4.6 mph - N/A   Mostly Cloudy
6:18 AM 19.0 °F 12.3 °F 17.1 °F 92% 30.35 in 9.0 mi NW 4.6 mph - N/A   Scattered Clouds
6:53 AM 19.9 °F 14.9 °F 18.0 °F 92% 30.39 in 10.0 mi NNW 3.5 mph - N/A   Partly Cloudy
7:53 AM 23.0 °F - 21.0 °F 92% 30.38 in 10.0 mi Calm Calm - N/A   Clear
8:53 AM 24.1 °F 17.0 °F 23.0 °F 96% 30.37 in 10.0 mi SE 5.8 mph - N/A   Clear
9:53 AM 27.0 °F 20.5 °F 26.1 °F 96% 30.37 in 6.0 mi East 5.8 mph - N/A   Clear
10:53 AM 30.9 °F 24.3 °F 28.9 °F 92% 30.33 in 8.0 mi SSE 6.9 mph - N/A   Clear
11:53 AM 36.0 °F 31.1 °F 30.9 °F 82% 30.34 in 10.0 mi NW 5.8 mph - N/A   Clear
12:53 PM 34.0 °F 28.0 °F 30.9 °F 89% 30.31 in 10.0 mi NW 6.9 mph - N/A   Clear
1:53 PM 37.0 °F 33.3 °F 30.0 °F 76% 30.30 in 10.0 mi NNW 4.6 mph - N/A   Clear
2:53 PM 37.0 °F - 30.0 °F 76% 30.29 in 10.0 mi Calm Calm - N/A   Clear
3:53 PM 35.1 °F 31.0 °F 30.0 °F 82% 30.28 in 10.0 mi SSE 4.6 mph - N/A   Clear
4:53 PM 33.1 °F 28.7 °F 28.9 °F 85% 30.27 in 10.0 mi East 4.6 mph - N/A   Clear
5:53 PM 34.0 °F 29.8 °F 28.9 °F 82% 30.27 in 10.0 mi SE 4.6 mph - N/A   Clear
6:53 PM 35.1 °F 28.6 °F 30.0 °F 82% 30.27 in 10.0 mi ESE 8.1 mph - N/A   Clear
7:53 PM 32.0 °F 25.6 °F 28.9 °F 88% 30.25 in 10.0 mi South 6.9 mph - N/A   Clear
8:53 PM 33.1 °F 26.1 °F 28.9 °F 85% 30.25 in 10.0 mi South 8.1 mph - N/A   Clear
9:53 PM 34.0 °F 31.0 °F 28.0 °F 79% 30.25 in 10.0 mi SE 3.5 mph - N/A   Clear
10:53 PM 30.0 °F - 28.0 °F 92% 30.26 in 10.0 mi Calm Calm - N/A   Clear
11:53 PM 28.9 °F 25.2 °F 27.0 °F 92% 30.27 in 10.0 mi SSE 3.5 mph - N/A   Clear